NOAA 16 DEB, 41284

Orbit data source: Space-Track

NOAA 16 DEB, 41284 is space debris in SSO originally from a launch on Thu, 21 Sep 2000 UTC launched from the Air Force Western Test Range (AFWTR). Debris objects in space refer to the collection of defunct objects orbiting the Earth. Examples of debris include non-operational satellites, rocket bodies, and fragments generated from explosions, collisions, or faulty payload assembly.

Loading next visibility...
Identifier
41284, 2000-055GL
Orbit
SSO
Country
Flag of USUS
Related business
Manufacturer
Unknown
Mission
Spacecraft
Bus & Motor
Unknown
Mass
Unknown
Launch date (UTC)
2000-09-21 (26 years ago)
Launch vehicle
Unknown
Launch site
Air Force Western Test Range (AFWTR)
Object type
Payload
Rocket body
Debris
Shape & HBR
Unknown shape, 0.1 m
Radar Cross Section
Medium (>0.1 m² and <1 m²)

Expand to show TLE details & history
Last TLE update: 2 days ago

TLE from 2 days ago
0 NOAA 16 DEB
1 41284U 00055GL  26192.36966811  .00001623  00000-0  94944-3 0  9994
2 41284  98.8579 158.4895 0079760  33.9153 326.7081 14.08135364537603
Epoch: 2026-07-11T08:52Z
TLE epoch observation values (Epoch: 2026-07-11T08:52:19.324Z)
Latitude
0.00005°
Longitude
96.12511°
Altitude
820.489 km
Speed
7.468 km/s
True Right ascension
10h 33m 57s
True Declination
0° 00' 00"
Sunlit
Object was in daylight at epoch
Visualization orbit readout
Latitude
Unknown
Longitude
Unknown
Altitude
Unknown
Speed
Unknown
Apparent Right ascension
Unknown
Apparent Declination
Unknown
Sunlit
N/A
Visualization observer readout
Local Sidereal Time
21:45:41
Azimuth
Unknown
Elevation
Unknown
Doppler factor
Unknown
Orbital elements
Apogee altitude
920.696 km
Perigee altitude
805.186 km
Semi-major axis
7,241.078 km
Eccentricity
0.00798
Inclination
98.8579°
RAAN
158.4895°
Arg. of periapsis
33.9153°
True anomaly
326.2022°
Mean anomaly
326.7081°
Eccentric anomaly
326.45557°
Mean motion
3.5224 °/min
Orbital period
102.2 mins
BSTAR
0.00094944
Loading maneuver chart data...
Computing Atmospheric mass density...
Loading historical data...
Loading historical data...
Loading historical data...
Loading historical data...
Loading historical data...
Loading historical data...
Loading historical data...

Documentation

Showing up to 5 results
|